Regional Weather Roundup
Issued by NWS Goodland, KS

Home | Current Version | Previous Version | Graphics & Text | Print | Product List | Glossary On
Versions: 1 2 3 4 5 6 7 8 9 10 11 12 13 14 15 16 17 18 19 20 21 22 23 24 25 26 27 28 29 30 31 32 33 34 35 36 37 38 39 40 41 42 43 44 45 46 47 48 49 50
913
ASUS43 KGLD 232208
RWRGLD

GOODLAND FORECAST AREA HOURLY WEATHER ROUNDUP
NATIONAL WEATHER SERVICE GOODLAND KS
300 PM MST THU NOV 23 2017

...OFFICIAL OBSERVATIONS...

CITY           SKY/WX    TMP DP  RH WIND       PRES   REMARKS
GOODLAND KS    CLOUDY    71  38  29 SW13      29.96F HAZE
HILL CITY KS   CLOUDY    74  41  30 SW9       29.92F
IMPERIAL NEB   CLOUDY    73  35  25 W16       29.91F
MCCOOK NEB     SUNNY     70  42  36 SW5       29.90F
AKRON CO       SUNNY     69  26  20 W12       29.99F
BURLINGTON CO  SUNNY     70  37  29 SW14      30.00F
LIMON CO       CLOUDY    70  26  19 W8        30.04F
$$

...UNOFFICIAL OBSERVATIONS...

CITY           SKY/WX    TMP DP  RH WIND       PRES   REMARKS
COLBY KS       CLOUDY    72  41  33 W8        29.96F
LENORA KS        N/A     73  32  22 SW6         N/A
NORTON KS      SUNNY     73  34  23 SW12      29.91
SHARON SPRINGS   N/A     72  40  31 CALM        N/A
TRIBUNE KS     CLOUDY    72  39  30 W5        30.02F
KIT CARSON CO    N/A     69  39  33 MISG        N/A
YUMA CO        FAIR      72  30  21 W14       29.96F
$$




USA.gov is the U.S. government's official web portal to all federal, state and local government web resources and services.